| time (UTC) | temp F | wind direction | speed knots | gust knots | rain 1hr in | rain 24hr in | rain mn in | humidity % | barometer mb |
| 20260509204505 | 89 | 308 | 6.1 | 9.6 | 0.00 | 0.00 | 0.00 | 51 | 987.8 |
| 20260509203001 | 88 | 336 | 1.7 | 8.7 | 0.00 | 0.00 | 0.00 | 57 | 988.1 |
| 20260509201602 | 88 | 311 | 0.0 | 0.9 | 0.00 | 0.00 | 0.00 | 58 | 988.1 |
| 20260509200100 | 87 | 286 | 0.0 | 7.0 | 0.00 | 0.00 | 0.00 | 60 | 988.3 |
| 20260509194557 | 86 | 359 | 5.2 | 9.6 | 0.00 | 0.00 | 0.00 | 63 | 988.4 |
| 20260509193101 | 87 | 320 | 0.0 | 10.4 | 0.00 | 0.00 | 0.00 | 62 | 988.6 |
| 20260509191607 | 88 | 319 | 0.0 | 7.8 | 0.00 | 0.00 | 0.00 | 62 | 988.6 |
| 20260509190056 | 88 | 289 | 0.9 | 7.8 | 0.00 | 0.00 | 0.00 | 62 | 988.7 |
| 20260509184558 | 87 | 306 | 0.0 | 5.2 | 0.00 | 0.00 | 0.00 | 61 | 988.7 |
| 20260509183056 | 87 | 303 | 1.7 | 7.0 | 0.00 | 0.00 | 0.00 | 62 | 988.7 |
| 20260509181544 | 85 | 273 | 0.0 | 0.9 | 0.00 | 0.00 | 0.00 | 62 | 988.8 |
| 20260509180041 | 84 | 224 | 0.0 | 2.6 | 0.00 | 0.00 | 0.00 | 62 | 988.9 |
| 20260509174555 | 84 | 237 | 0.9 | 7.8 | 0.00 | 0.00 | 0.00 | 63 | 989.1 |
| 20260509173047 | 82 | 223 | 0.0 | 7.8 | 0.00 | 0.00 | 0.00 | 65 | 989.3 |
| 20260509171537 | 82 | 215 | 0.0 | 4.3 | 0.00 | 0.00 | 0.00 | 66 | 989.4 |
| 20260509170034 | 82 | 247 | 0.0 | 0.9 | 0.00 | 0.00 | 0.00 | 67 | 989.5 |
| 20260509164532 | 82 | 294 | 0.0 | 0.0 | 0.00 | 0.00 | 0.00 | 68 | 989.6 |
| 20260509163038 | 81 | 236 | 0.0 | 0.9 | 0.00 | 0.00 | 0.00 | 68 | 989.6 |
| 20260509161529 | 81 | 247 | 0.0 | 0.9 | 0.00 | 0.00 | 0.00 | 70 | 989.4 |
| 20260509160027 | 79 | 261 | 0.0 | 1.7 | 0.00 | 0.00 | 0.00 | 73 | 989.5 |
| 20260509154526 | 79 | 249 | 0.0 | 1.7 | 0.00 | 0.00 | 0.00 | 70 | 989.3 |
| 20260509153031 | 79 | 275 | 0.0 | 1.7 | 0.00 | 0.00 | 0.00 | 72 | 989.2 |
| 20260509151522 | 78 | 243 | 1.7 | 7.8 | 0.00 | 0.00 | 0.00 | 74 | 989.2 |
| 20260509150019 | 77 | 210 | 0.9 | 7.0 | 0.00 | 0.00 | 0.00 | 75 | 989.2 |
| 20260509144519 | 76 | 228 | 0.0 | 2.6 | 0.00 | 0.00 | 0.00 | 77 | 989.3 |
| 20260509143013 | 76 | 255 | 0.0 | 1.7 | 0.00 | 0.00 | 0.00 | 80 | 989.3 |
| 20260509141511 | 75 | 305 | 0.0 | 0.9 | 0.00 | 0.00 | 0.00 | 81 | 989.3 |
| 20260509140012 | 74 | 220 | 0.0 | 1.7 | 0.00 | 0.00 | 0.00 | 82 | 989.3 |
| 20260509134506 | 74 | 217 | 0.0 | 1.7 | 0.00 | 0.00 | 0.00 | 82 | 989.2 |
| 20260509133004 | 73 | 237 | 0.0 | 1.7 | 0.00 | 0.00 | 0.00 | 83 | 989.1 |
| 20260509131601 | 72 | 251 | 0.0 | 0.9 | 0.00 | 0.00 | 0.00 | 86 | 989.0 |
| 20260509130108 | 71 | 217 | 0.0 | 0.9 | 0.00 | 0.00 | 0.00 | 91 | 988.8 |
| 20260509124559 | 70 | 211 | 0.0 | 1.7 | 0.00 | 0.00 | 0.00 | 93 | 988.9 |
| 20260509123058 | 69 | 359 | 0.0 | 0.9 | 0.00 | 0.00 | 0.00 | 93 | 989.0 |
| 20260509121625 | 69 | 285 | 0.0 | 0.9 | 0.00 | 0.00 | 0.00 | 92 | 988.9 |
| 20260509120057 | 70 | 102 | 0.0 | 1.7 | 0.00 | 0.00 | 0.00 | 93 | 988.6 |
| 20260509114603 | 70 | 103 | 0.0 | 0.9 | 0.00 | 0.00 | 0.00 | 92 | 988.5 |
| 20260509113100 | 70 | 91 | 0.0 | 2.6 | 0.00 | 0.00 | 0.00 | 92 | 988.4 |
| 20260509111556 | 70 | 256 | 0.0 | 0.9 | 0.00 | 0.00 | 0.00 | 93 | 988.3 |
| 20260509110104 | 70 | 144 | 0.0 | 0.9 | 0.00 | 0.00 | 0.00 | 93 | 988.2 |
| 20260509104554 | 69 | 122 | 0.0 | 0.0 | 0.00 | 0.00 | 0.00 | 93 | 988.1 |
| 20260509103101 | 69 | 208 | 0.0 | 0.9 | 0.00 | 0.00 | 0.00 | 93 | 988.1 |
| 20260509101604 | 69 | 196 | 0.0 | 3.5 | 0.00 | 0.00 | 0.00 | 93 | 987.7 |
| 20260509100054 | 69 | 206 | 0.0 | 0.9 | 0.00 | 0.00 | 0.00 | 93 | 987.2 |
| 20260509094603 | 69 | 237 | 0.0 | 1.7 | 0.00 | 0.00 | 0.00 | 93 | 987.1 |
| 20260509093052 | 69 | 58 | 0.9 | 7.8 | 0.00 | 0.00 | 0.00 | 93 | 986.0 |
| 20260509091551 | 69 | 56 | 3.5 | 11.3 | 0.00 | 0.00 | 0.00 | 92 | 985.9 |
| 20260509090058 | 69 | 66 | 7.0 | 12.2 | 0.00 | 0.00 | 0.00 | 92 | 985.9 |
| 20260509084547 | 69 | 62 | 1.7 | 8.7 | 0.00 | 0.00 | 0.00 | 91 | 986.7 |
| 20260509083052 | 70 | 93 | 0.0 | 5.2 | 0.00 | 0.00 | 0.00 | 90 | 987.8 |
| 20260509081538 | 70 | 110 | 0.0 | 1.7 | 0.00 | 0.00 | 0.00 | 90 | 988.5 |
| 20260509080039 | 70 | 125 | 0.0 | 1.7 | 0.00 | 0.00 | 0.00 | 90 | 988.9 |
| 20260509074538 | 70 | 163 | 0.0 | 0.9 | 0.00 | 0.00 | 0.00 | 90 | 989.2 |
| 20260509073037 | 69 | 166 | 0.0 | 0.9 | 0.00 | 0.00 | 0.00 | 90 | 989.5 |
| 20260509071541 | 69 | 164 | 0.0 | 0.9 | 0.00 | 0.00 | 0.00 | 89 | 989.7 |
| 20260509070033 | 70 | 183 | 0.0 | 2.6 | 0.00 | 0.00 | 0.00 | 88 | 988.9 |
| 20260509064531 | 70 | 137 | 0.0 | 0.0 | 0.00 | 0.00 | 0.00 | 88 | 988.9 |
| 20260509063029 | 70 | 118 | 0.0 | 0.9 | 0.00 | 0.00 | 0.00 | 87 | 988.9 |
| 20260509061528 | 71 | 113 | 0.0 | 0.9 | 0.00 | 0.00 | 0.00 | 86 | 989.4 |
| 20260509060029 | 71 | 96 | 0.0 | 0.9 | 0.00 | 0.00 | 0.00 | 86 | 989.5 |
| 20260509054527 | 71 | 15 | 0.0 | 0.0 | 0.00 | 0.00 | 0.00 | 85 | 990.1 |
| 20260509053031 | 71 | 189 | 0.0 | 0.9 | 0.00 | 0.00 | 0.00 | 85 | 989.5 |
| 20260509051522 | 71 | 123 | 0.0 | 0.9 | 0.00 | 0.00 | 0.00 | 85 | 989.1 |
| 20260509050021 | 72 | 142 | 0.0 | 0.9 | 0.00 | 0.00 | 0.00 | 84 | 989.2 |
| 20260509044519 | 72 | 99 | 0.0 | 3.5 | 0.00 | 0.00 | 0.00 | 83 | 988.7 |
| 20260509043017 | 72 | 129 | 0.0 | 0.9 | 0.00 | 0.00 | 0.00 | 82 | 989.2 |
| 20260509041517 | 72 | 232 | 0.0 | 0.0 | 0.00 | 0.00 | 0.00 | 82 | 989.8 |
| 20260509040026 | 72 | 359 | 0.0 | 0.9 | 0.00 | 0.00 | 0.00 | 82 | 989.6 |
| 20260509034517 | 73 | 70 | 0.0 | 3.5 | 0.00 | 0.00 | 0.00 | 82 | 989.1 |
| 20260509033015 | 73 | 95 | 0.0 | 1.7 | 0.00 | 0.00 | 0.00 | 82 | 989.0 |
| 20260509031514 | 72 | 126 | 0.0 | 0.9 | 0.00 | 0.00 | 0.00 | 82 | 988.9 |
| 20260509030028 | 72 | 113 | 0.0 | 1.7 | 0.00 | 0.00 | 0.00 | 81 | 988.7 |
| 20260509024514 | 72 | 50 | 0.0 | 0.9 | 0.00 | 0.00 | 0.00 | 80 | 988.4 |
| 20260509023012 | 72 | 87 | 0.0 | 1.7 | 0.00 | 0.00 | 0.00 | 79 | 988.1 |
| 20260509021513 | 72 | 37 | 0.0 | 0.9 | 0.00 | 0.00 | 0.00 | 79 | 988.0 |
| 20260509020012 | 72 | 57 | 0.0 | 0.9 | 0.00 | 0.00 | 0.00 | 79 | 988.1 |
| 20260509014510 | 72 | 110 | 0.0 | 0.9 | 0.00 | 0.00 | 0.00 | 79 | 988.1 |
| 20260509013011 | 72 | 73 | 0.0 | 1.7 | 0.00 | 0.00 | 0.00 | 79 | 988.0 |
| 20260509011511 | 72 | 93 | 0.0 | 0.9 | 0.00 | 0.00 | 0.00 | 79 | 987.8 |
| 20260509010010 | 73 | 53 | 0.0 | 0.9 | 0.00 | 0.00 | 0.00 | 78 | 987.3 |
| 20260509004512 | 73 | 359 | 0.0 | 1.7 | 0.00 | 0.00 | 0.00 | 77 | 987.1 |
| 20260509003012 | 73 | 359 | 0.0 | 0.9 | 0.00 | 0.00 | 0.00 | 77 | 987.3 |
| 20260509001512 | 73 | 359 | 0.0 | 1.7 | 0.00 | 0.00 | 0.00 | 76 | 987.4 |
| 20260509000008 | 73 | 359 | 0.0 | 1.7 | 0.00 | 0.00 | 0.00 | 76 | 987.5 |
| 20260508234512 | 73 | 50 | 0.0 | 1.7 | 0.00 | 0.00 | 0.00 | 75 | 987.7 |
| 20260508233008 | 74 | 66 | 0.0 | 1.7 | 0.00 | 0.00 | 0.00 | 73 | 987.8 |
| 20260508231507 | 75 | 31 | 0.0 | 0.9 | 0.00 | 0.00 | 0.00 | 71 | 987.7 |
| 20260508230006 | 74 | 10 | 0.0 | 0.9 | 0.00 | 0.00 | 0.00 | 72 | 987.8 |
| 20260508224505 | 73 | 134 | 0.0 | 0.9 | 0.00 | 0.00 | 0.00 | 72 | 987.9 |
| 20260508223005 | 73 | 85 | 0.0 | 0.9 | 0.00 | 0.00 | 0.00 | 73 | 988.0 |
| 20260508221504 | 73 | 121 | 0.0 | 0.9 | 0.00 | 0.00 | 0.00 | 72 | 988.0 |
| 20260508220004 | 73 | 137 | 0.0 | 0.9 | 0.00 | 0.00 | 0.00 | 74 | 987.9 |
| 20260508214503 | 72 | 359 | 0.0 | 1.7 | 0.00 | 0.00 | 0.00 | 73 | 987.8 |
| 20260508213008 | 71 | 91 | 0.0 | 1.7 | 0.00 | 0.00 | 0.00 | 75 | 987.9 |
| 20260508211503 | 71 | 294 | 0.0 | 13.0 | 0.00 | 0.00 | 0.00 | 78 | 986.9 |
| 20260508210100 | 72 | 139 | 0.0 | 6.1 | 0.00 | 0.00 | 0.00 | 75 | 989.8 |